CZ-4C DEB (43266 NORAD) Tracking and Keplerian Element Data

This shows tracking and keplerian element data for the satellite.

Feedback or suggestion? Click here.




ElementValue
Catalog43266
NameCZ-4C DEB
Epoch Orbit427
Epoch Day119.46741814
Epoch Year2018
RAAN195.6548
Inclination98.0724
Eccentricity0.0036672
Argument of Perigee340.2747
Mean Anonmoly19.7046
Mean Motion14.83039319
Decay Rate3.25E-06
L11 43266U 18031H 18119.46741814 .00000325 00000-0 46494-4 0 9990
L22 43266 98.0724 195.6548 0036672 340.2747 19.7046 14.83039319 4273

Live tracking and technical data element details for CZ-4C DEB (NORAD 43266). CZ-4C DEB can be tracked NOW for your location showing map with azimuth and elevation plus other details from your city location.

Track the satellite on the map from your city or location and see movement details for azimuth, elevation, latitude, longitude, range, height, and movement on the map or in text.







IsCatalogInMostPopularTable: catalog: 43266, numindb: 88
Update: records affected: 1



GetName: 43266 CZ-4C DEB

Hit Count: updated at: Tue, 20 Nov 2018 11:08:12 GMT